📊 Raw Sensor Data

Showing records 43676 to 43700 of 85,022 total

ID Distance (ft) Battery V Battery A Int Temp (°F) Int Humid (%) Ext Temp (°F) Solar V RSSI SNR Time Stamp
41359 15.3 3.99 8 81 50 74 4.60 -70 7 05/22/2025 06:45 PM
41358 15.4 3.94 0 83 49 75 5.10 -68 7 05/22/2025 06:30 PM
41357 15.3 3.98 0 84 48 77 5.10 -70 8 05/22/2025 06:15 PM
41356 15.3 4.07 0 85 48 77 5.10 -69 8 05/22/2025 06:00 PM
41355 15.3 4.07 0 86 48 77 5.10 -69 8 05/22/2025 05:45 PM
41354 15.4 3.94 0 86 48 79 5.10 -69 8 05/22/2025 05:30 PM
41353 15.3 3.94 0 88 47 78 5.10 -69 8 05/22/2025 05:15 PM
41352 15.3 3.94 0 88 47 81 5.10 -70 7 05/22/2025 05:00 PM
41351 15.3 3.94 0 89 46 80 5.10 -68 7 05/22/2025 04:45 PM
41350 15.4 3.94 0 90 45 81 5.10 -68 8 05/22/2025 04:30 PM
41349 15.3 3.94 0 90 45 82 5.10 -69 7 05/22/2025 04:15 PM
41348 15.4 3.94 0 91 45 82 5.10 -69 7 05/22/2025 04:00 PM
41347 15.4 3.94 0 91 44 85 5.10 -68 7 05/22/2025 03:45 PM
41346 15.3 3.94 0 91 44 85 5.10 -69 8 05/22/2025 03:30 PM
41345 15.3 3.94 0 91 43 85 5.10 -68 8 05/22/2025 03:15 PM
41344 15.4 3.94 0 91 43 84 5.10 -69 8 05/22/2025 03:00 PM
41343 15.3 3.94 0 91 42 85 5.10 -68 8 05/22/2025 02:45 PM
41342 15.3 3.94 0 91 41 84 5.10 -68 7 05/22/2025 02:30 PM
41341 15.3 4.11 0 90 41 85 5.10 -67 8 05/22/2025 02:15 PM
41340 15.3 3.94 0 88 42 83 5.10 -69 7 05/22/2025 02:00 PM
41339 15.3 3.94 0 87 42 81 5.10 -69 7 05/22/2025 01:45 PM
41338 15.3 3.94 0 87 42 81 5.10 -67 7 05/22/2025 01:30 PM
41337 15.3 3.94 0 86 42 82 5.10 -69 8 05/22/2025 01:15 PM
41336 15.3 4.08 0 86 42 82 5.10 -68 8 05/22/2025 01:00 PM
41335 15.3 3.94 0 85 42 81 5.10 -67 8 05/22/2025 12:45 PM